Clinton, AR

9:43 AM CDT on May 25, 2017 (GMT -0500)
Clinton

Weather History for KCCA - October, 2012

Change the Weather History Date:

Monday, October 22, 2012

  Actual Average (KBVX) Record (KBVX)
Temperature  
Mean Temperature 72 °F -  
Max Temperature 80 °F 71 °F 87 °F (1953)
Min Temperature 64 °F 46 °F 23 °F (1952)
Cooling Degree Days 7    
Growing Degree Days 22 (Base 50)    
Moisture  
Dew Point 64 °F    
Average Humidity 78    
Maximum Humidity 94    
Minimum Humidity 58    
Precipitation  
Precipitation 0.00 in - - ()
Sea Level Pressure  
Sea Level Pressure 30.01 in    
Wind  
Wind Speed 4 mph (South)    
Max Wind Speed 13 mph    
Max Gust Speed 21 mph    
Visibility 10 miles    
Events      
Averages and records for this station are not official NWS values.
T = Trace of Precipitation, MM = Missing Value Source: NWS Daily Summary

Daily Weather History Graph

Daily Weather History Graph

Search for Another Location

Airport or City:

Trip Planner

Search our weather history database for the weather conditions in past years. The results will help you decide how hot, cold, wet, or windy it might be!

Date:

Astronomy

Oct. 22, 2012 Rise Set
Actual Time 7:22 AM CDT 6:24 PM CDT
Civil Twilight 6:56 AM CDT 6:50 PM CDT
Nautical Twilight 6:27 AM CDT 7:20 PM CDT
Astronomical Twilight 5:57 AM CDT 7:50 PM CDT
Moon 2:20 PM CDT (10/22) 12:24 AM CDT (10/22)
Length of Visible Light 11h 54m
Length of Day
11h 02m
First Quarter, 56% of the Moon is Illuminated
Oct 22
First Quarter
Oct 29
Full
Nov 6
Last Quarter
Nov 13
New
Nov 20
First Quarter

Hourly Weather History & Observations

Time (CDT) Temp. Heat Index Dew Point Humidity Pressure Visibility Wind Dir Wind Speed Gust Speed Precip Events Conditions
12:15 AM 69.8 °F - 64.4 °F 83% 29.98 in 10.0 mi Calm Calm - N/A   Clear
12:55 AM 66.2 °F - 64.4 °F 94% 29.98 in 10.0 mi Calm Calm - N/A   Clear
1:35 AM 64.4 °F - 62.6 °F 94% 29.98 in 10.0 mi Calm Calm - N/A   Scattered Clouds
1:55 AM 64.4 °F - 62.6 °F 94% 29.98 in 10.0 mi Calm Calm - N/A   Scattered Clouds
2:35 AM 64.4 °F - 62.6 °F 94% 29.98 in 10.0 mi South 3.5 mph - N/A   Overcast
2:55 AM 69.8 °F - 62.6 °F 78% 29.98 in 10.0 mi SSE 3.5 mph - N/A   Overcast
3:15 AM 69.8 °F - 62.6 °F 78% 29.98 in 10.0 mi SSE 3.5 mph - N/A   Overcast
3:55 AM 66.2 °F - 62.6 °F 88% 29.97 in 10.0 mi Calm Calm - N/A   Partly Cloudy
4:15 AM 66.2 °F - 62.6 °F 88% 29.97 in 10.0 mi SSE 4.6 mph - N/A   Clear
4:35 AM 68.0 °F - 62.6 °F 83% 29.97 in 10.0 mi SSE 4.6 mph - N/A   Clear
4:55 AM 66.2 °F - 62.6 °F 88% 29.98 in 10.0 mi SSE 3.5 mph - N/A   Clear
5:15 AM 66.2 °F - 62.6 °F 88% 29.98 in 10.0 mi SSE 3.5 mph - N/A   Clear
5:35 AM 66.2 °F - 62.6 °F 88% 29.99 in 10.0 mi SSE 3.5 mph - N/A   Mostly Cloudy
5:55 AM 66.2 °F - 62.6 °F 88% 30.00 in 10.0 mi SE 3.5 mph - N/A   Mostly Cloudy
6:15 AM 66.2 °F - 62.6 °F 88% 30.00 in 10.0 mi SSE 5.8 mph - N/A   Mostly Cloudy
6:35 AM 66.2 °F - 62.6 °F 88% 30.00 in 10.0 mi SSE 3.5 mph - N/A   Overcast
6:55 AM 66.2 °F - 62.6 °F 88% 30.01 in 10.0 mi South 3.5 mph - N/A   Mostly Cloudy
7:15 AM 66.2 °F - 62.6 °F 88% 30.01 in 10.0 mi South 4.6 mph - N/A   Mostly Cloudy
7:35 AM 66.2 °F - 62.6 °F 88% 30.02 in 10.0 mi SSE 4.6 mph - N/A   Overcast
7:55 AM 66.2 °F - 62.6 °F 88% 30.02 in 10.0 mi SSE 4.6 mph - N/A   Overcast
8:35 AM 66.2 °F - 62.6 °F 88% 30.03 in 10.0 mi SSE 5.8 mph - N/A   Overcast
8:55 AM 66.2 °F - 62.6 °F 88% 30.04 in 8.0 mi South 4.6 mph - N/A   Overcast
9:15 AM 68.0 °F - 64.4 °F 88% 30.04 in 10.0 mi SSE 3.5 mph - N/A   Overcast
9:35 AM 69.8 °F - 64.4 °F 83% 30.04 in 9.0 mi Calm Calm - N/A   Overcast
9:55 AM 69.8 °F - 64.4 °F 83% 30.05 in 8.0 mi SSE 4.6 mph - N/A   Overcast
10:15 AM 73.4 °F - 66.2 °F 78% 30.05 in 10.0 mi South 4.6 mph - N/A   Mostly Cloudy
10:35 AM 73.4 °F - 66.2 °F 78% 30.04 in 10.0 mi SSW 10.4 mph 16.1 mph N/A   Overcast
10:55 AM 73.4 °F - 66.2 °F 78% 30.04 in 10.0 mi South 6.9 mph - N/A   Overcast
11:35 AM 75.2 °F - 64.4 °F 69% 30.04 in 10.0 mi SSW 9.2 mph 17.3 mph N/A   Scattered Clouds
12:15 PM 78.8 °F - 64.4 °F 61% 30.03 in 10.0 mi South 12.7 mph 18.4 mph N/A   Scattered Clouds
12:35 PM 78.8 °F - 64.4 °F 61% 30.02 in 10.0 mi SSW 9.2 mph 20.7 mph N/A   Scattered Clouds
12:55 PM 78.8 °F - 64.4 °F 61% 30.02 in 10.0 mi SSW 11.5 mph 18.4 mph N/A   Scattered Clouds
1:15 PM 78.8 °F - 64.4 °F 61% 30.02 in 10.0 mi South 12.7 mph 18.4 mph N/A   Partly Cloudy
1:35 PM 78.8 °F - 64.4 °F 61% 30.01 in 10.0 mi South 11.5 mph 19.6 mph N/A   Mostly Cloudy
1:55 PM 78.8 °F - 64.4 °F 61% 30.00 in 10.0 mi SSW 10.4 mph 20.7 mph N/A   Mostly Cloudy
2:15 PM 78.8 °F - 66.2 °F 65% 30.00 in 10.0 mi South 9.2 mph 17.3 mph N/A   Scattered Clouds
2:35 PM 78.8 °F - 64.4 °F 61% 29.99 in 10.0 mi South 10.4 mph 18.4 mph N/A   Scattered Clouds
2:55 PM 78.8 °F - 64.4 °F 61% 29.99 in 10.0 mi South 11.5 mph 16.1 mph N/A   Scattered Clouds
3:15 PM 78.8 °F - 64.4 °F 61% 29.99 in 10.0 mi SSW 9.2 mph - N/A   Partly Cloudy
3:35 PM 78.8 °F - 64.4 °F 61% 29.99 in 10.0 mi SSW 9.2 mph - N/A   Mostly Cloudy
3:55 PM 80.6 °F 82.3 °F 64.4 °F 58% 29.99 in 10.0 mi South 9.2 mph - N/A   Scattered Clouds
4:15 PM 78.8 °F - 64.4 °F 61% 29.99 in 10.0 mi South 10.4 mph - N/A   Partly Cloudy
4:35 PM 78.8 °F - 64.4 °F 61% 29.99 in 10.0 mi South 8.1 mph - N/A   Partly Cloudy
4:55 PM 78.8 °F - 64.4 °F 61% 29.99 in 10.0 mi South 6.9 mph - N/A   Clear
5:15 PM 78.8 °F - 64.4 °F 61% 29.99 in 10.0 mi SSW 4.6 mph - N/A   Partly Cloudy
5:35 PM 78.8 °F - 64.4 °F 61% 30.00 in 10.0 mi SSW 5.8 mph - N/A   Clear
5:55 PM 77.0 °F - 64.4 °F 65% 30.00 in 10.0 mi SSW 3.5 mph - N/A   Scattered Clouds
6:15 PM 75.2 °F - 62.6 °F 65% 30.00 in 10.0 mi SSW 3.5 mph - N/A   Partly Cloudy
6:35 PM 73.4 °F - 64.4 °F 73% 30.00 in 10.0 mi ESE 3.5 mph - N/A   Mostly Cloudy
6:55 PM 71.6 °F - 64.4 °F 78% 30.01 in 10.0 mi ESE 3.5 mph - N/A   Scattered Clouds
7:35 PM 69.8 °F - 64.4 °F 83% 30.01 in 10.0 mi Calm Calm - N/A   Clear
7:55 PM 68.0 °F - 64.4 °F 88% 30.02 in 10.0 mi Calm Calm - N/A   Partly Cloudy
8:55 PM 66.2 °F - 64.4 °F 94% 30.01 in 8.0 mi Calm Calm - N/A   Clear
9:15 PM 66.2 °F - 62.6 °F 88% 30.00 in 10.0 mi East 3.5 mph - N/A   Clear
9:55 PM 66.2 °F - 62.6 °F 88% 30.02 in 9.0 mi Calm Calm - N/A   Clear
10:35 PM 64.4 °F - 62.6 °F 94% 30.02 in 10.0 mi Calm Calm - N/A   Clear
10:55 PM 64.4 °F - 62.6 °F 94% 30.02 in 10.0 mi Calm Calm - N/A   Partly Cloudy
11:15 PM 64.4 °F - 60.8 °F 88% 30.02 in 10.0 mi Calm Calm - N/A   Mostly Cloudy
11:35 PM 64.4 °F - 60.8 °F 88% 30.02 in 10.0 mi Calm Calm - N/A   Mostly Cloudy
11:55 PM 64.4 °F - 62.6 °F 94% 30.01 in 10.0 mi Calm Calm - N/A   Overcast